Probability
9 11 14 15 14 13 13 12 12 12 9 7 6 6 5 4 3 3 3 3 3 2 1 0 0 0 0 0 0 0 0 0 0 0 0 0 0 0 0 0 0 0 0
15 16 19 20 16 14 14 13 12 12 10 8 6 6 5 4 3 3 3 3 3 1 0 0 0 0 0 0 0 0 0 0 0 0 0 0 0 0 0 0 0 0 0
22 22 25 25 21 17 14 12 11 12 11 8 7 6 6 5 4 3 3 3 2 1 0 0 0 0 0 0 0 0 0 0 0 0 0 0 0 0 0 0 0 0 0
26 27 28 28 25 19 14 11 10 10 10 8 6 6 6 5 5 3 2 1 2 2 1 0 0 0 0 0 0 0 0 0 0 0 0 0 0 0 0 0 0 0 0
29 29 29 28 25 21 15 11 10 9 9 7 5 4 4 4 3 2 1 1 1 1 1 0 0 0 0 0 0 0 0 0 0 0 0 0 0 0 0 0 0 0 0
28 28 29 28 26 22 18 13 11 10 8 7 6 4 3 3 2 1 1 0 0 0 0 0 0 0 0 0 0 0 0 0 0 0 0 0 0 0 0 0 0 0 0
27 27 28 28 26 23 20 17 14 12 10 9 8 5 4 3 2 1 1 0 0 0 0 0 0 0 0 0 0 0 0 0 0 0 0 0 0 0 0 0 0 0 0
27 26 26 26 24 22 20 19 18 15 12 11 9 7 5 3 3 2 1 0 0 0 0 0 0 0 0 0 0 0 0 0 0 0 0 0 0 0 0 0 0 0 0
26 26 25 23 21 20 18 19 19 16 13 11 10 9 7 4 3 3 2 1 0 0 0 0 0 0 0 0 0 0 0 0 0 0 0 0 0 0 0 0 0 0 0
21 22 22 20 19 17 15 16 16 14 12 11 10 9 8 6 4 3 3 2 1 0 0 0 0 0 0 0 0 0 0 0 0 0 0 0 0 0 0 0 0 0 0
15 15 15 15 14 13 12 12 11 10 9 9 10 10 9 6 4 3 3 2 1 0 0 0 0 0 0 0 0 0 0 0 0 0 0 0 0 0 0 0 0 0 0
10 9 8 8 8 8 9 9 8 7 6 7 8 9 8 6 4 3 3 1 0 0 0 0 0 0 0 0 0 0 0 0 0 0 0 0 0 0 0 0 0 0 0
6 4 3 3 4 5 6 6 5 4 4 5 6 7 7 5 4 3 3 1 0 0 0 0 0 0 0 0 0 0 0 0 0 0 0 0 0 0 0 0 0 0 0
3 2 1 1 2 3 4 4 4 3 3 3 4 5 5 5 4 3 3 2 1 0 0 0 0 0 0 0 0 0 0 0 0 0 0 0 0 0 0 0 0 0 0
2 1 1 1 1 1 3 4 4 3 3 3 3 3 4 5 4 3 3 3 1 0 0 0 0 0 0 0 0 0 0 0 0 0 0 0 0 0 0 0 1 2 1
1 0 0 0 0 0 1 3 3 3 3 3 3 3 3 3 3 3 3 3 2 1 0 0 0 0 0 0 0 0 0 0 0 0 0 0 0 0 0 0 1 2 2
0 0 0 0 0 0 0 1 2 3 3 3 3 3 3 3 2 2 3 3 3 2 1 0 0 0 0 0 0 0 0 0 0 0 0 0 0 0 0 0 1 1 1
0 0 0 0 0 0 0 0 1 2 2 3 3 3 3 3 1 1 2 3 3 2 1 0 0 0 0 0 0 0 0 0 0 0 0 0 0 0 0 0 0 0 1
0 0 0 0 0 0 0 0 0 1 1 1 3 3 3 3 2 1 1 1 2 2 1 0 0 0 0 0 0 0 0 0 0 0 0 0 0 0 0 0 0 0 1
0 0 0 0 0 0 0 0 0 0 0 1 2 3 3 3 2 1 0 0 1 1 0 0 0 0 0 0 0 0 0 0 0 0 0 0 0 0 0 0 0 0 0
0 0 0 0 0 0 0 0 0 0 0 0 1 2 3 3 2 1 0 0 0 0 0 0 0 0 0 0 0 0 0 0 0 0 0 0 0 0 0 0 0 0 0
0 0 0 0 0 0 0 0 0 0 0 0 0 1 1 2 2 1 0 0 0 0 0 0 0 0 0 0 0 0 0 0 0 0 0 0 0 0 0 0 0 0 0
0 0 0 0 0 0 0 0 0 0 0 0 0 0 0 1 1 0 0 0 0 0 0 0 0 0 0 0 0 0 0 0 0 0 0 0 0 0 0 0 0 0 0
0 0 0 0 0 0 0 0 0 0 0 0 0 0 0 0 0 0 0 0 0 0 0 0 0 0 0 0 0 0 0 0 0 0 0 0 0 0 0 0 0 0 0
0 0 0 0 0 0 0 0 0 0 0 0 0 0 0 0 0 0 0 0 0 0 0 0 0 0 0 0 0 0 0 0 0 0 0 0 0 0 0 0 0 0 0
0 0 0 0 0 0 0 0 0 0 0 0 0 0 0 0 0 0 0 0 0 0 0 0 0 0 0 0 0 0 0 0 0 0 0 0 0 0 0 0 0 0 0
Wind_Speed
3 4 9 10 10 10 10 11 11 10 10 10 10 10 9 9 9 8 8 7 7 7 7 7 7 8 8 8 9 9 9 9 8 8 8 8 8 8 9 8 6 4 8
5 6 10 10 11 11 10 10 10 10 9 9 9 9 9 8 8 7 7 7 6 6 6 6 7 7 7 7 7 7 7 7 7 6 5 5 6 7 7 7 6 4 7
7 6 9 10 11 11 10 10 10 9 9 9 9 9 8 8 7 6 6 6 6 6 5 5 6 5 5 5 5 5 5 4 4 4 3 2 2 4 6 6 6 6 6
7 6 7 10 11 11 10 10 9 9 9 8 8 8 8 7 7 7 6 5 5 5 5 4 5 5 4 4 4 3 3 3 3 2 1 0 0 3 4 5 5 5 5
7 6 8 10 11 11 10 9 9 8 8 8 7 7 7 6 6 6 6 5 5 5 4 4 4 4 3 2 2 1 1 2 3 2 1 0 0 2 3 4 4 4 4
7 6 7 10 11 11 10 9 8 8 8 7 6 6 5 5 5 5 5 5 4 4 4 3 3 2 2 1 0 1 2 2 2 1 0 1 1 3 4 4 4 4 3
7 5 6 10 10 10 9 8 8 7 6 6 6 5 4 4 4 4 4 4 3 3 2 2 1 1 0 1 1 2 3 3 1 0 1 2 2 4 5 5 5 4 3
7 6 6 9 9 9 9 8 7 7 6 5 5 4 3 3 3 3 3 2 2 1 1 0 0 0 1 2 3 3 3 3 1 1 2 2 4 5 6 6 6 5 4
7 6 5 4 6 8 8 7 7 7 6 5 5 4 4 3 3 2 2 1 1 1 1 1 2 2 3 3 4 4 4 4 2 2 3 2 5 6 7 7 7 7 6
7 6 5 5 4 4 4 7 7 6 6 6 5 5 5 4 3 3 2 2 2 1 1 2 2 3 4 4 4 4 4 4 2 3 2 4 7 8 7 8 8 8 7
7 5 5 5 4 3 3 5 6 6 6 6 4 5 4 2 1 2 3 3 3 2 2 2 3 4 4 4 5 5 4 2 3 3 3 6 8 9 8 8 9 9 9
5 4 4 5 5 4 3 3 3 3 3 3 2 2 2 2 2 2 3 4 4 3 3 4 4 4 3 2 4 4 2 3 3 3 4 8 9 10 10 9 10 10 10
4 4 4 4 4 4 3 2 2 2 2 3 3 2 2 2 2 2 1 2 3 3 2 3 3 2 2 2 2 2 3 2 2 3 4 7 9 10 10 10 10 10 11
5 4 4 4 4 4 3 2 2 2 2 2 2 2 2 2 2 2 1 2 1 1 2 2 2 2 3 3 3 3 3 2 2 2 3 7 8 10 10 10 10 11 11
5 4 4 4 4 4 4 3 3 2 2 2 2 2 2 2 1 1 1 1 2 1 2 2 2 3 3 3 3 3 3 3 3 3 3 6 7 9 10 11 11 12 12
5 4 3 5 4 4 4 3 2 2 2 3 3 3 3 2 1 1 2 2 2 2 2 2 2 2 2 2 3 3 4 3 3 3 3 3 5 7 9 10 11 11 12
4 3 3 4 4 4 4 3 3 2 3 3 3 3 4 3 2 2 1 2 2 2 2 2 2 2 2 3 4 4 3 3 3 3 3 2 2 4 6 9 10 10 10
4 3 3 4 4 4 3 3 2 3 3 3 3 3 4 4 3 2 2 2 2 2 2 2 2 2 3 3 3 4 3 3 3 3 2 2 2 2 3 5 6 7 8
4 3 3 4 4 3 3 3 3 3 3 2 2 3 4 5 4 3 2 2 2 2 2 3 2 2 3 4 4 3 3 3 3 3 2 2 2 2 2 3 4 5 6
4 3 3 3 3 3 3 3 3 3 3 3 2 3 4 4 5 4 2 4 3 2 3 3 2 2 2 3 4 4 3 3 2 2 2 2 2 2 3 3 3 4 6
3 3 3 2 2 2 2 2 2 2 2 2 3 3 4 4 4 4 3 4 3 3 3 3 2 3 3 3 3 3 3 2 2 1 1 2 2 3 3 3 3 2 3
3 3 2 2 1 1 1 0 0 0 0 1 2 3 3 4 4 4 4 3 3 3 4 4 3 2 2 2 2 2 3 4 3 3 2 2 3 3 3 4 3 3 3
4 3 3 2 1 1 1 1 1 2 2 2 2 2 3 3 3 3 3 3 3 3 3 3 3 2 2 2 1 1 1 2 3 3 2 2 3 3 3 3 4 4 4
5 4 3 2 1 1 1 1 1 1 0 1 1 1 2 3 3 3 3 3 3 2 3 3 3 2 2 2 2 1 1 1 2 3 3 2 3 4 4 4 4 5 4
5 4 3 2 2 1 1 2 1 1 1 1 1 1 2 2 3 3 2 2 2 2 2 3 3 3 2 1 1 2 2 2 1 2 4 3 3 2 3 3 3 3 4
3 3 3 3 3 2 2 2 2 2 2 1 1 1 1 1 2 2 2 2 2 2 2 2 2 2 2 2 1 1 1 1 2 2 3 4 4 3 3 2 3 3 4
Wind_Direction
151 153 136 132 125 118 116 114 108 105 101 100 99 99 99 97 96 96 97 95 94 90 91 90 88 89 87 86 86 86 85 82 80 77 71 70 80 87 84 81 77 70 84
150 147 131 127 123 119 113 114 110 105 103 101 99 98 98 100 98 94 94 94 95 94 96 97 93 91 88 86 88 89 87 84 80 75 64 60 73 87 90 86 89 90 88
128 135 128 123 121 119 115 114 113 109 106 102 100 97 95 94 91 93 94 93 92 91 95 99 97 96 90 90 90 91 86 80 75 66 60 50 74 98 101 96 95 98 98
123 124 123 120 120 120 117 114 115 113 108 103 100 97 96 93 87 82 86 89 90 88 89 95 99 101 95 95 93 87 78 66 53 45 57 360 237 128 120 112 104 101 101
110 110 116 115 117 117 116 114 114 115 110 105 100 96 93 92 89 81 80 85 81 84 86 88 97 104 106 103 91 67 31 21 25 27 42 97 230 164 146 126 115 111 108
103 103 111 109 114 113 113 113 111 114 111 105 102 100 96 93 89 84 79 79 77 82 85 83 93 108 119 135 302 327 336 346 8 18 257 222 218 198 173 157 147 140 135
104 98 106 103 107 110 109 109 106 111 111 106 103 101 98 95 92 89 81 79 76 83 90 88 83 109 188 243 287 310 322 335 336 255 230 232 224 207 193 181 173 172 171
104 94 94 94 96 98 101 100 99 100 104 101 97 94 91 89 84 84 80 77 72 74 81 90 325 262 278 276 278 295 308 303 317 275 253 241 236 221 206 196 191 192 195
90 85 77 81 87 88 90 91 90 85 88 86 77 69 66 68 64 60 44 44 37 10 328 298 282 273 276 284 287 292 295 290 276 257 261 249 245 234 221 209 206 205 210
76 74 70 65 68 72 78 76 75 72 70 71 66 62 59 54 45 39 24 11 357 338 329 315 300 289 286 288 289 292 293 290 264 258 255 253 249 241 231 220 216 218 221
66 61 63 61 57 56 72 70 64 65 61 60 57 56 57 41 30 35 20 14 2 352 338 329 317 311 303 292 289 289 292 278 264 260 250 257 251 243 237 230 225 226 228
72 61 55 57 52 50 61 60 51 58 51 48 49 51 45 32 21 28 13 13 3 354 342 334 328 324 319 301 295 295 280 269 262 262 259 258 253 248 242 237 232 231 232
87 70 52 51 52 55 51 52 43 45 40 34 33 40 41 34 20 21 16 4 357 356 341 331 330 325 311 300 296 293 283 272 261 260 264 264 258 253 251 244 237 237 237
85 73 57 51 48 51 55 48 53 50 40 29 17 24 46 38 22 9 11 350 353 345 337 332 318 310 303 292 286 287 290 284 273 265 265 265 261 259 259 256 248 245 244
85 69 56 56 50 46 48 37 47 42 42 30 20 23 40 49 25 7 355 352 341 338 332 325 321 316 310 302 295 292 287 281 276 271 274 269 266 266 265 262 259 257 253
90 76 60 59 52 50 49 41 37 33 37 39 28 21 34 45 36 20 4 358 348 335 322 313 318 311 304 305 304 297 287 283 277 276 274 279 278 276 273 269 267 266 264
103 86 72 74 54 51 47 37 41 34 41 42 30 24 27 32 30 30 19 1 340 335 338 339 342 334 331 324 308 300 292 287 286 279 280 278 286 289 285 281 280 277 275
108 90 67 64 54 47 44 39 38 43 45 37 28 25 23 22 28 28 17 352 338 346 353 346 350 334 328 321 308 300 298 295 294 288 290 296 295 297 300 304 302 298 293
120 109 84 63 51 39 35 40 43 46 41 29 30 29 21 19 22 26 14 350 347 360 0 348 348 330 318 320 305 298 302 298 294 307 316 321 323 329 324 330 325 316 310
115 104 88 69 51 42 34 40 38 37 27 21 24 27 29 20 19 20 16 3 4 11 4 351 329 323 307 310 307 309 301 297 307 322 320 342 355 353 344 337 325 318 319
113 109 102 84 52 49 41 40 36 13 360 6 10 21 28 25 18 24 18 7 10 16 2 352 338 334 338 338 338 326 318 316 339 345 346 359 359 346 343 341 335 329 324
152 149 138 123 93 69 72 78 163 176 353 352 2 8 15 24 16 26 26 10 8 12 11 7 2 350 340 358 354 331 330 332 347 344 346 360 346 347 351 345 339 333 325
179 177 169 166 142 113 73 60 37 36 22 11 0 354 352 11 21 24 24 19 8 15 7 357 360 3 330 327 349 335 325 300 315 314 342 356 355 350 342 337 340 332 329
199 183 173 173 171 178 129 117 128 130 191 277 311 325 339 2 11 17 14 13 12 12 6 351 6 349 336 328 325 332 291 279 287 308 316 342 349 350 346 344 344 344 346
189 183 185 180 189 200 181 165 149 167 208 257 314 327 333 348 357 3 5 8 8 1 356 352 351 353 345 333 328 319 309 301 274 274 295 316 329 331 334 332 341 348 350
183 187 190 192 208 209 203 195 189 202 216 232 271 285 295 319 329 339 352 355 353 348 342 339 342 348 345 344 337 329 312 301 306 286 284 302 307 307 322 336 352 350 352